Time,TemperatureF,DewpointF,PressureIn,WindDirection,WindDirectionDegrees,WindSpeedMPH,WindSpeedGustMPH,Humidity,HourlyPrecipIn,Conditions,Clouds,dailyrainin,SolarRadiationWatts/m^2,SoftwareType,DateUTC
2016-09-25 00:00:00,83.7,78.0,30.01,East,95,0.0,2.0,83,0.00,,---,0.09,0.00,VWS V14.01,2016-09-25 04:00:00,
2016-09-25 00:10:00,83.8,78.1,30.01,SE,125,0.0,4.0,83,0.00,,---,0.00,0.00,VWS V14.01,2016-09-25 04:10:00,
2016-09-25 00:15:00,83.8,78.4,30.01,SE,125,0.0,4.0,84,0.00,,---,0.00,0.00,VWS V14.01,2016-09-25 04:15:00,
2016-09-25 00:20:00,83.8,78.1,30.01,ESE,122,0.0,5.0,83,0.00,,---,0.00,0.00,VWS V14.01,2016-09-25 04:20:00,
2016-09-25 00:25:00,83.8,78.4,30.01,East,86,0.0,5.0,84,0.00,,---,0.00,0.00,VWS V14.01,2016-09-25 04:25:00,
2016-09-25 00:30:00,83.7,78.0,30.00,ENE,70,2.0,5.0,83,0.00,,---,0.00,0.00,VWS V14.01,2016-09-25 04:30:00,
2016-09-25 00:35:00,83.8,78.4,30.00,ENE,71,0.0,3.0,84,0.00,,---,0.00,0.00,VWS V14.01,2016-09-25 04:35:00,
2016-09-25 00:40:00,83.8,78.4,30.00,East,84,1.0,3.0,84,0.00,,---,0.00,0.00,VWS V14.01,2016-09-25 04:40:00,
2016-09-25 00:45:00,83.9,78.2,30.00,East,96,1.0,5.0,83,0.00,,---,0.00,0.00,VWS V14.01,2016-09-25 04:45:00,
2016-09-25 00:50:00,83.8,78.1,30.00,East,92,0.0,5.0,83,0.00,,---,0.00,0.00,VWS V14.01,2016-09-25 04:50:00,
2016-09-25 00:55:00,83.6,78.3,30.00,ENE,78,0.0,5.0,84,0.00,,---,0.00,0.00,VWS V14.01,2016-09-25 04:55:00,
2016-09-25 01:00:00,83.6,78.3,30.00,East,85,0.0,5.0,84,0.00,,---,0.00,0.00,VWS V14.01,2016-09-25 05:00:00,
2016-09-25 01:05:00,83.8,78.4,30.00,East,80,0.0,5.0,84,0.00,,---,0.00,0.00,VWS V14.01,2016-09-25 05:05:00,
2016-09-25 01:10:00,83.9,78.2,30.00,East,88,0.0,5.0,83,0.00,,---,0.00,0.00,VWS V14.01,2016-09-25 05:10:00,
2016-09-25 01:15:00,84.0,78.3,30.00,ESE,107,0.0,5.0,83,0.00,,---,0.00,0.00,VWS V14.01,2016-09-25 05:15:00,
2016-09-25 01:20:00,83.9,78.2,30.00,East,100,0.0,5.0,83,0.00,,---,0.00,0.00,VWS V14.01,2016-09-25 05:20:00,
2016-09-25 01:25:00,83.8,78.1,30.00,East,99,0.0,5.0,83,0.00,,---,0.00,0.00,VWS V14.01,2016-09-25 05:25:00,
2016-09-25 01:30:00,83.8,78.1,30.00,East,99,0.0,5.0,83,0.00,,---,0.00,0.00,VWS V14.01,2016-09-25 05:30:00,
2016-09-25 01:35:00,83.7,78.3,30.00,East,97,0.0,0.0,84,0.00,,---,0.00,0.00,VWS V14.01,2016-09-25 05:35:00,
2016-09-25 01:40:00,83.8,78.1,30.00,East,98,0.0,0.0,83,0.00,,---,0.00,0.00,VWS V14.01,2016-09-25 05:40:00,
2016-09-25 01:45:00,83.9,78.2,30.00,ENE,70,0.0,2.0,83,0.00,,---,0.00,0.00,VWS V14.01,2016-09-25 05:45:00,
2016-09-25 01:50:00,84.1,78.4,30.00,East,96,0.0,3.0,83,0.00,,---,0.00,0.00,VWS V14.01,2016-09-25 05:50:00,
2016-09-25 01:55:00,84.3,78.6,30.00,ESE,116,0.0,3.0,83,0.00,,---,0.00,0.00,VWS V14.01,2016-09-25 05:55:00,
2016-09-25 02:00:00,84.2,77.4,29.99,East,84,0.0,4.0,80,0.00,,---,0.00,0.00,VWS V14.01,2016-09-25 06:00:00,
2016-09-25 02:05:00,84.2,76.6,29.99,SE,136,1.0,1.0,78,0.00,,---,0.00,0.00,VWS V14.01,2016-09-25 06:05:00,
2016-09-25 02:10:00,84.1,76.1,29.99,ESE,116,0.0,6.0,77,0.00,,---,0.00,0.00,VWS V14.01,2016-09-25 06:10:00,
2016-09-25 02:15:00,84.1,76.1,29.98,SE,129,0.0,6.0,77,0.00,,---,0.00,0.00,VWS V14.01,2016-09-25 06:15:00,
2016-09-25 02:20:00,84.1,76.9,29.98,SE,130,0.0,6.0,79,0.00,,---,0.00,0.00,VWS V14.01,2016-09-25 06:20:00,
2016-09-25 02:25:00,83.9,77.1,29.98,ESE,121,0.0,6.0,80,0.00,,---,0.00,0.00,VWS V14.01,2016-09-25 06:25:00,
2016-09-25 02:30:00,83.9,77.1,29.98,ESE,121,0.0,6.0,80,0.00,,---,0.00,0.00,VWS V14.01,2016-09-25 06:30:00,
2016-09-25 02:35:00,83.9,76.7,29.98,SE,136,2.0,7.0,79,0.00,,---,0.00,0.00,VWS V14.01,2016-09-25 06:35:00,
2016-09-25 02:40:00,84.1,76.9,29.98,SE,134,0.0,7.0,79,0.00,,---,0.00,0.00,VWS V14.01,2016-09-25 06:40:00,
2016-09-25 02:45:00,84.2,77.0,29.98,SE,136,0.0,7.0,79,0.00,,---,0.00,0.00,VWS V14.01,2016-09-25 06:45:00,
2016-09-25 02:50:00,84.3,77.1,29.98,SE,132,0.0,7.0,79,0.00,,---,0.00,0.00,VWS V14.01,2016-09-25 06:50:00,
2016-09-25 02:55:00,84.2,77.4,29.98,SE,131,0.0,7.0,80,0.00,,---,0.00,0.00,VWS V14.01,2016-09-25 06:55:00,
2016-09-25 03:00:00,84.2,77.4,29.98,SE,128,0.0,7.0,80,0.00,,---,0.00,0.00,VWS V14.01,2016-09-25 07:00:00,
2016-09-25 03:05:00,84.1,77.3,29.98,SE,137,8.0,8.0,80,0.00,,---,0.00,0.00,VWS V14.01,2016-09-25 07:05:00,
2016-09-25 03:10:00,83.8,77.0,29.98,ESE,118,0.0,9.0,80,0.00,,---,0.00,0.00,VWS V14.01,2016-09-25 07:10:00,
2016-09-25 03:15:00,83.6,76.8,29.97,ESE,115,1.0,9.0,80,0.00,,---,0.00,0.00,VWS V14.01,2016-09-25 07:15:00,
2016-09-25 03:20:00,83.6,76.4,29.97,SE,140,0.0,9.0,79,0.00,,---,0.00,0.00,VWS V14.01,2016-09-25 07:20:00,
2016-09-25 03:25:00,83.7,76.9,29.97,SE,128,0.0,9.0,80,0.00,,---,0.00,0.00,VWS V14.01,2016-09-25 07:25:00,
2016-09-25 03:30:00,83.7,76.5,29.97,SE,127,0.0,9.0,79,0.00,,---,0.00,0.00,VWS V14.01,2016-09-25 07:30:00,
2016-09-25 03:35:00,83.6,76.4,29.97,SE,127,0.0,2.0,79,0.00,,---,0.00,0.00,VWS V14.01,2016-09-25 07:35:00,
2016-09-25 03:40:00,83.4,76.2,29.97,SE,128,0.0,2.0,79,0.00,,---,0.00,0.00,VWS V14.01,2016-09-25 07:40:00,
2016-09-25 03:45:00,83.4,76.6,29.96,SE,128,1.0,4.0,80,0.00,,---,0.00,0.00,VWS V14.01,2016-09-25 07:45:00,
2016-09-25 03:50:00,83.2,76.4,29.96,ESE,123,2.0,6.0,80,0.00,,---,0.00,0.00,VWS V14.01,2016-09-25 07:50:00,
2016-09-25 03:55:00,83.0,76.2,29.96,SE,144,1.0,6.0,80,0.00,,---,0.00,0.00,VWS V14.01,2016-09-25 07:55:00,
2016-09-25 04:00:00,82.9,76.5,29.96,SE,128,0.0,6.0,81,0.00,,---,0.00,0.00,VWS V14.01,2016-09-25 08:00:00,
2016-09-25 04:05:00,82.9,76.8,29.96,SE,126,0.0,1.0,82,0.00,,---,0.00,0.00,VWS V14.01,2016-09-25 08:05:00,
2016-09-25 04:10:00,82.7,76.7,29.96,SE,126,0.0,1.0,82,0.00,,---,0.00,0.00,VWS V14.01,2016-09-25 08:10:00,
2016-09-25 04:15:00,82.7,76.7,29.96,SE,126,0.0,1.0,82,0.00,,---,0.00,0.00,VWS V14.01,2016-09-25 08:15:00,
2016-09-25 04:20:00,82.7,76.7,29.96,SE,126,0.0,2.0,82,0.00,,---,0.00,0.00,VWS V14.01,2016-09-25 08:20:00,
2016-09-25 04:25:00,82.7,76.7,29.96,SE,126,0.0,2.0,82,0.00,,---,0.00,0.00,VWS V14.01,2016-09-25 08:25:00,
2016-09-25 04:30:00,82.8,76.0,29.96,SE,126,0.0,2.0,80,0.00,,---,0.00,0.00,VWS V14.01,2016-09-25 08:30:00,
2016-09-25 04:39:00,83.1,75.9,29.96,SE,126,0.0,0.0,79,0.00,,---,0.00,0.00,VWS V14.01,2016-09-25 08:39:00,
2016-09-25 04:44:00,82.7,75.9,29.97,SE,126,0.0,0.0,80,0.00,,---,0.00,0.00,VWS V14.01,2016-09-25 08:44:00,
2016-09-25 04:49:00,82.5,76.1,29.97,SE,126,0.0,0.0,81,0.00,,---,0.00,0.00,VWS V14.01,2016-09-25 08:49:00,
2016-09-25 04:54:00,82.8,76.4,29.97,SE,126,0.0,0.0,81,0.00,,---,0.00,0.00,VWS V14.01,2016-09-25 08:54:00,
2016-09-25 04:59:00,82.8,76.4,29.97,SE,126,0.0,0.0,81,0.00,,---,0.00,0.00,VWS V14.01,2016-09-25 08:59:00,
2016-09-25 05:04:00,82.7,77.0,29.97,SE,126,0.0,0.0,83,0.00,,---,0.00,0.00,VWS V14.01,2016-09-25 09:04:00,
2016-09-25 05:09:00,83.0,77.3,29.97,SE,126,0.0,0.0,83,0.00,,---,0.00,0.00,VWS V14.01,2016-09-25 09:09:00,
2016-09-25 05:14:00,83.2,77.1,29.97,SE,126,0.0,0.0,82,0.00,,---,0.00,0.00,VWS V14.01,2016-09-25 09:14:00,
2016-09-25 05:19:00,83.5,76.7,29.97,SE,126,1.0,1.0,80,0.00,,---,0.00,0.00,VWS V14.01,2016-09-25 09:19:00,
2016-09-25 05:24:00,83.8,77.0,29.97,SE,126,0.0,1.0,80,0.00,,---,0.00,0.00,VWS V14.01,2016-09-25 09:24:00,
2016-09-25 05:29:00,83.8,77.0,29.97,SE,126,0.0,2.0,80,0.00,,---,0.00,0.00,VWS V14.01,2016-09-25 09:29:00,
2016-09-25 05:34:00,83.8,77.0,29.97,SE,126,0.0,0.0,80,0.00,,---,0.00,0.00,VWS V14.01,2016-09-25 09:34:00,
2016-09-25 05:39:00,83.8,77.0,29.97,SE,126,0.0,0.0,80,0.00,,---,0.00,0.00,VWS V14.01,2016-09-25 09:39:00,
2016-09-25 05:44:00,83.7,77.2,29.97,SE,126,0.0,0.0,81,0.00,,---,0.00,0.00,VWS V14.01,2016-09-25 09:44:00,
2016-09-25 05:54:00,82.5,76.8,29.97,SE,126,0.0,0.0,83,0.00,,---,0.00,0.00,VWS V14.01,2016-09-25 09:54:00,
2016-09-25 05:59:00,82.5,76.8,29.97,SE,126,0.0,0.0,83,0.00,,---,0.00,0.00,VWS V14.01,2016-09-25 09:59:00,
2016-09-25 06:04:00,82.3,76.6,29.97,SE,126,0.0,0.0,83,0.00,,---,0.00,0.00,VWS V14.01,2016-09-25 10:04:00,
2016-09-25 06:09:00,82.1,76.8,29.97,SE,126,0.0,0.0,84,0.00,,---,0.00,0.00,VWS V14.01,2016-09-25 10:09:00,
2016-09-25 06:14:00,81.9,76.9,29.98,SE,126,0.0,0.0,85,0.00,,---,0.00,0.00,VWS V14.01,2016-09-25 10:14:00,
2016-09-25 06:19:00,82.0,77.1,29.98,SE,126,0.0,0.0,85,0.00,,---,0.00,0.00,VWS V14.01,2016-09-25 10:19:00,
2016-09-25 06:24:00,82.0,77.1,29.98,SE,126,0.0,0.0,85,0.00,,---,0.00,0.00,VWS V14.01,2016-09-25 10:24:00,
2016-09-25 06:29:00,82.0,77.1,29.98,SE,126,0.0,0.0,85,0.00,,---,0.00,0.00,VWS V14.01,2016-09-25 10:29:00,
2016-09-25 06:34:00,82.1,77.5,29.98,SE,126,0.0,0.0,86,0.00,,---,0.00,0.00,VWS V14.01,2016-09-25 10:34:00,
2016-09-25 06:39:00,82.1,77.5,29.98,SE,126,0.0,0.0,86,0.00,,---,0.00,0.00,VWS V14.01,2016-09-25 10:39:00,
2016-09-25 06:44:00,81.7,77.1,29.98,SE,126,0.0,0.0,86,0.00,,---,0.00,0.00,VWS V14.01,2016-09-25 10:44:00,
2016-09-25 06:49:00,81.8,77.6,29.98,SE,126,0.0,0.0,87,0.00,,---,0.00,0.00,VWS V14.01,2016-09-25 10:49:00,
2016-09-25 06:54:00,82.1,77.8,29.98,SE,126,0.0,0.0,87,0.00,,---,0.00,0.00,VWS V14.01,2016-09-25 10:54:00,
2016-09-25 06:59:00,82.1,77.8,29.99,SE,126,0.0,0.0,87,0.00,,---,0.00,0.00,VWS V14.01,2016-09-25 10:59:00,
2016-09-25 07:04:00,82.1,77.8,29.99,SE,126,0.0,0.0,87,0.00,,---,0.00,0.00,VWS V14.01,2016-09-25 11:04:00,
2016-09-25 07:09:00,82.1,77.8,29.99,SE,126,0.0,0.0,87,0.00,,---,0.00,0.00,VWS V14.01,2016-09-25 11:09:00,
2016-09-25 07:14:00,82.0,77.8,29.99,SE,126,0.0,0.0,87,0.00,,---,0.00,0.00,VWS V14.01,2016-09-25 11:14:00,
2016-09-25 07:19:00,82.0,77.8,29.99,SE,126,0.0,0.0,87,0.00,,---,0.00,0.00,VWS V14.01,2016-09-25 11:19:00,
2016-09-25 07:24:00,82.3,77.7,29.99,SE,126,0.0,0.0,86,0.00,,---,0.00,0.00,VWS V14.01,2016-09-25 11:24:00,
2016-09-25 07:29:00,82.5,77.9,29.99,SE,126,0.0,0.0,86,0.00,,---,0.00,11.00,VWS V14.01,2016-09-25 11:29:00,
2016-09-25 07:34:00,82.4,77.8,29.99,SE,126,0.0,0.0,86,0.00,,---,0.00,26.00,VWS V14.01,2016-09-25 11:34:00,
2016-09-25 07:39:00,82.5,77.9,29.99,SE,126,0.0,0.0,86,0.00,,---,0.00,44.00,VWS V14.01,2016-09-25 11:39:00,
2016-09-25 07:44:00,82.5,77.9,29.99,SE,126,0.0,0.0,86,0.00,,---,0.00,58.00,VWS V14.01,2016-09-25 11:44:00,
2016-09-25 07:49:00,82.7,77.7,29.99,SE,126,0.0,0.0,85,0.00,,---,0.00,54.00,VWS V14.01,2016-09-25 11:49:00,
2016-09-25 07:54:00,82.7,77.7,29.99,SE,126,0.0,0.0,85,0.00,,---,0.00,54.00,VWS V14.01,2016-09-25 11:54:00,
2016-09-25 07:59:00,83.2,77.5,30.00,SE,126,0.0,0.0,83,0.00,,---,0.00,51.00,VWS V14.01,2016-09-25 11:59:00,
2016-09-25 08:04:00,83.5,77.8,30.00,SE,126,0.0,0.0,83,0.00,,---,0.00,49.00,VWS V14.01,2016-09-25 12:04:00,
2016-09-25 08:09:00,83.5,77.8,30.00,SE,126,0.0,0.0,83,0.00,,---,0.00,44.00,VWS V14.01,2016-09-25 12:09:00,
2016-09-25 08:14:00,83.5,77.8,30.00,SE,126,0.0,0.0,83,0.00,,---,0.00,35.00,VWS V14.01,2016-09-25 12:14:00,
2016-09-25 08:19:00,83.6,77.9,30.00,SE,126,0.0,0.0,83,0.00,,---,0.00,30.00,VWS V14.01,2016-09-25 12:19:00,
2016-09-25 08:24:00,83.7,77.6,30.00,SE,126,0.0,0.0,82,0.00,,---,0.00,25.00,VWS V14.01,2016-09-25 12:24:00,
2016-09-25 08:29:00,83.4,76.6,30.01,SE,131,0.0,3.0,80,0.00,,---,0.00,18.00,VWS V14.01,2016-09-25 12:29:00,
2016-09-25 08:34:00,83.4,76.2,30.01,SE,131,0.0,1.0,79,0.00,,---,0.00,19.00,VWS V14.01,2016-09-25 12:34:00,
2016-09-25 08:39:00,83.4,76.6,30.01,SE,142,0.0,5.0,80,0.00,,---,0.00,16.00,VWS V14.01,2016-09-25 12:39:00,
2016-09-25 08:44:00,83.4,77.0,30.01,SE,141,0.0,5.0,81,0.00,,---,0.00,19.00,VWS V14.01,2016-09-25 12:44:00,
2016-09-25 08:49:00,82.8,75.6,30.01,SE,132,0.0,6.0,79,0.00,,---,0.00,23.00,VWS V14.01,2016-09-25 12:49:00,
2016-09-25 08:59:00,82.2,75.0,30.03,ENE,73,0.0,6.0,79,0.00,,---,0.00,14.00,VWS V14.01,2016-09-25 12:59:00,
2016-09-25 09:04:00,80.9,74.5,30.03,ESE,123,2.0,5.0,81,0.00,,---,0.00,14.00,VWS V14.01,2016-09-25 13:04:00,
2016-09-25 09:09:00,80.0,74.0,30.03,SE,144,1.0,5.0,82,0.00,,---,0.00,21.00,VWS V14.01,2016-09-25 13:09:00,
2016-09-25 09:14:00,80.1,74.8,30.03,ESE,104,0.0,5.0,84,0.00,,---,0.00,23.00,VWS V14.01,2016-09-25 13:14:00,
2016-09-25 09:19:00,79.9,75.0,30.03,ENE,66,0.0,5.0,85,0.00,,---,0.00,25.00,VWS V14.01,2016-09-25 13:19:00,
2016-09-25 09:24:00,79.3,74.8,30.03,NE,36,4.0,5.0,86,0.00,,---,0.00,37.00,VWS V14.01,2016-09-25 13:24:00,
2016-09-25 09:29:00,79.3,74.8,30.05,East,80,0.0,5.0,86,0.00,,---,0.00,30.00,VWS V14.01,2016-09-25 13:29:00,
2016-09-25 09:34:00,79.4,75.2,30.05,ENE,70,4.0,4.0,87,0.01,,---,0.01,33.00,VWS V14.01,2016-09-25 13:34:00,
2016-09-25 09:39:00,79.1,75.2,30.05,ENE,71,0.0,4.0,88,0.01,,---,0.01,40.00,VWS V14.01,2016-09-25 13:39:00,
2016-09-25 09:44:00,78.5,74.7,30.04,ENE,65,0.0,4.0,88,0.01,,---,0.01,44.00,VWS V14.01,2016-09-25 13:44:00,
2016-09-25 09:49:00,78.1,74.6,30.04,ENE,65,0.0,4.0,89,0.03,,---,0.03,51.00,VWS V14.01,2016-09-25 13:49:00,
2016-09-25 09:54:00,78.0,74.8,30.04,ENE,65,0.0,4.0,90,0.04,,---,0.04,54.00,VWS V14.01,2016-09-25 13:54:00,
2016-09-25 09:59:00,77.9,74.7,30.04,East,92,0.0,5.0,90,0.04,,---,0.04,53.00,VWS V14.01,2016-09-25 13:59:00,
2016-09-25 10:09:00,77.9,75.1,30.04,East,90,0.0,1.0,91,0.05,,---,0.05,76.00,VWS V14.01,2016-09-25 14:09:00,
2016-09-25 10:14:00,77.9,75.1,30.03,East,90,0.0,1.0,91,0.05,,---,0.05,135.00,VWS V14.01,2016-09-25 14:14:00,
2016-09-25 10:19:00,78.6,75.8,30.03,East,90,0.0,1.0,91,0.05,,---,0.05,626.00,VWS V14.01,2016-09-25 14:19:00,
2016-09-25 10:24:00,80.2,76.3,30.03,East,90,0.0,1.0,88,0.05,,---,0.05,679.00,VWS V14.01,2016-09-25 14:24:00,
2016-09-25 10:29:00,81.4,77.2,30.03,East,81,0.0,3.0,87,0.05,,---,0.05,475.00,VWS V14.01,2016-09-25 14:29:00,
2016-09-25 10:34:00,81.4,76.1,30.03,NE,46,0.0,4.0,84,0.05,,---,0.05,533.00,VWS V14.01,2016-09-25 14:34:00,
2016-09-25 10:39:00,82.4,76.0,30.03,NE,47,0.0,4.0,81,0.05,,---,0.05,693.00,VWS V14.01,2016-09-25 14:39:00,
2016-09-25 10:44:00,83.8,75.8,30.04,ENE,60,0.0,4.0,77,0.05,,---,0.05,715.00,VWS V14.01,2016-09-25 14:44:00,
2016-09-25 10:49:00,84.3,76.7,30.04,East,92,0.0,4.0,78,0.05,,---,0.05,758.00,VWS V14.01,2016-09-25 14:49:00,
2016-09-25 10:54:00,84.8,77.2,30.04,East,92,0.0,4.0,78,0.05,,---,0.05,777.00,VWS V14.01,2016-09-25 14:54:00,
2016-09-25 10:59:00,85.4,77.8,30.04,East,92,0.0,4.0,78,0.05,,---,0.05,786.00,VWS V14.01,2016-09-25 14:59:00,
2016-09-25 11:04:00,85.4,78.2,30.04,East,79,2.0,4.0,79,0.01,,---,0.05,689.00,VWS V14.01,2016-09-25 15:04:00,
2016-09-25 11:09:00,85.4,77.0,30.04,NE,49,1.0,4.0,76,0.01,,---,0.05,594.00,VWS V14.01,2016-09-25 15:09:00,
2016-09-25 11:14:00,85.2,77.6,30.04,ENE,59,0.0,4.0,78,0.01,,---,0.05,483.00,VWS V14.01,2016-09-25 15:14:00,
2016-09-25 11:19:00,84.8,77.6,30.04,East,95,0.0,4.0,79,0.01,,---,0.05,376.00,VWS V14.01,2016-09-25 15:19:00,
2016-09-25 11:24:00,85.1,77.5,30.04,East,95,0.0,4.0,78,0.01,,---,0.05,694.00,VWS V14.01,2016-09-25 15:24:00,
2016-09-25 11:29:00,85.2,77.6,30.04,East,95,0.0,4.0,78,0.01,,---,0.05,786.00,VWS V14.01,2016-09-25 15:29:00,
2016-09-25 11:34:00,85.2,77.9,30.04,East,95,0.0,1.0,79,0.00,,---,0.05,304.00,VWS V14.01,2016-09-25 15:34:00,
2016-09-25 11:39:00,85.3,76.9,30.04,East,90,0.0,1.0,76,0.00,,---,0.05,374.00,VWS V14.01,2016-09-25 15:39:00,
2016-09-25 11:44:00,87.1,77.8,30.04,ENE,74,0.0,3.0,74,0.00,,---,0.05,1005.00,VWS V14.01,2016-09-25 15:44:00,
2016-09-25 11:49:00,88.5,78.7,30.04,ENE,78,2.0,3.0,73,0.00,,---,0.05,984.00,VWS V14.01,2016-09-25 15:49:00,
2016-09-25 11:54:00,88.2,78.0,30.04,ENE,78,0.0,3.0,72,0.00,,---,0.05,666.00,VWS V14.01,2016-09-25 15:54:00,
2016-09-25 11:59:00,87.7,77.1,30.04,NE,38,4.0,5.0,71,0.00,,---,0.05,524.00,VWS V14.01,2016-09-25 15:59:00,
2016-09-25 12:04:00,86.7,77.0,30.04,NE,40,3.0,3.0,73,0.00,,---,0.05,443.00,VWS V14.01,2016-09-25 16:04:00,
2016-09-25 12:09:00,86.1,76.4,30.04,NE,40,3.0,4.0,73,0.00,,---,0.05,290.00,VWS V14.01,2016-09-25 16:09:00,
2016-09-25 12:14:00,85.9,75.8,30.04,NE,48,0.0,4.0,72,0.00,,---,0.05,232.00,VWS V14.01,2016-09-25 16:14:00,
2016-09-25 12:19:00,85.8,76.6,30.04,ESE,115,0.0,4.0,74,0.00,,---,0.05,211.00,VWS V14.01,2016-09-25 16:19:00,
2016-09-25 12:24:00,85.6,75.5,30.04,ESE,102,1.0,5.0,72,0.00,,---,0.05,211.00,VWS V14.01,2016-09-25 16:24:00,
2016-09-25 12:29:00,85.2,76.0,30.04,ESE,119,0.0,5.0,74,0.00,,---,0.05,237.00,VWS V14.01,2016-09-25 16:29:00,
2016-09-25 12:34:00,85.2,75.6,30.04,East,98,0.0,3.0,73,0.00,,---,0.05,313.00,VWS V14.01,2016-09-25 16:34:00,
2016-09-25 12:39:00,86.0,76.3,30.04,ENE,67,3.0,3.0,73,0.00,,---,0.05,496.00,VWS V14.01,2016-09-25 16:39:00,